Location: Champignolles
(47.0543°N, 4.5663°E)
Time: 07:27:06
(UTC+00:00)

N. Korean satellite - Visible Passes

Search period start: 07 December 2021 00:00
Search period end: 17 December 2021 00:00
Orbit: 446 x 495 km, 97.3° (Epoch: 06 December)

Date Brightness Start Highest point End Pass type
(mag) Time Alt. Az. Time Alt. Az. Time Alt. Az.
07 Dec 6.5 04:58:33 10° NNE 05:01:57 73° ESE 05:05:19 10° S visible
07 Dec 9.7 17:10:01 10° SW 17:12:01 14° W 17:14:01 10° NW visible
08 Dec 8.3 04:30:17 10° NNE 04:33:20 30° E 04:36:22 10° SSE visible
08 Dec 7.8 06:03:58 10° NNW 06:06:20 18° WNW 06:08:41 10° WSW visible
08 Dec 8.7 16:40:10 10° SSW 16:43:18 30° W 16:46:24 10° NNW visible
09 Dec 9.6 04:02:39 10° ENE 04:04:35 14° E 04:06:31 10° SE visible
09 Dec 6.9 05:34:48 10° N 05:37:57 37° WNW 05:41:06 10° SW visible
10 Dec 6.3 05:06:04 10° NNE 05:09:41 77° SSW 05:12:51 10° SSW visible
10 Dec 9.9 17:18:17 10° WSW 17:19:36 12° W 17:20:55 10° WNW visible
11 Dec 8.0 04:37:39 10° NNE 04:41:38 33° SE 04:44:02 10° SSE visible
11 Dec 8.7 06:15:43 10° W 06:15:43 10° W 06:15:46 10° WSW visible
11 Dec 9.1 16:47:56 10° SSW 16:50:49 24° W 16:53:42 10° NW visible
12 Dec 9.4 04:13:17 15° ESE 04:13:17 15° ESE 04:14:29 10° SE visible
12 Dec 8.2 05:47:24 17° WSW 05:47:24 17° WSW 05:48:24 10° SW visible
13 Dec 8.1 05:18:57 22° SSW 05:18:57 22° SSW 05:20:17 10° SSW visible
14 Dec 8.6 04:50:24 20° SSE 04:50:24 20° SSE 04:51:36 10° S visible
14 Dec9.306:24:30WSW06:24:30WSW06:17:59NNWvisible
14 Dec 9.4 16:55:41 10° SW 16:58:17 20° W 17:00:53 10° NW visible
15 Dec 9.4 04:21:50 12° SE 04:21:50 12° SE 04:22:16 10° SSE visible
15 Dec9.005:55:55SW05:55:55SW05:48:50Nvisible
15 Dec 7.9 16:26:15 10° S 16:29:33 43° W 16:32:51 10° NNW visible
16 Dec 8.8 05:27:17 12° SSW 05:27:17 12° SSW 05:27:37 10° SSW visible
